Change the Weather History Date:

Friday, October 10, 2014

  Actual Average Record
Temperature  
Mean Temperature 52 °F 49 °F  
Max Temperature 59 °F 65 °F 84 °F (1979)
Min Temperature 44 °F 33 °F 24 °F (1982)
Degree Days  
Heating Degree Days 13 16  
Month to date heating degree days 130 140  
Since 1 July heating degree days 248 364  
Cooling Degree Days 0 0  
Month to date cooling degree days 0 0  
Year to date cooling degree days 305 243  
Growing Degree Days 2 (Base 50)    
Moisture  
Dew Point 47 °F    
Average Humidity 79    
Maximum Humidity 100    
Minimum Humidity 57    
Precipitation  
Precipitation 0.05 in 0.05 in 0.75 in (2013)
Month to date precipitation 0.68 0.51  
Year to date precipitation 9.92 12.39  
Sea Level Pressure  
Sea Level Pressure 30.10 in    
Wind  
Wind Speed 3 mph (East)    
Max Wind Speed 9 mph    
Max Gust Speed 13 mph    
Visibility 10 miles    
Events Rain    
T = Trace of Precipitation, MM = Missing Value Source: NWS Daily Summary

Daily Weather History Graph

Daily Weather History Graph

Search for Another Location

Airport or City:

Trip Planner

Search our weather history database for the weather conditions in past years. The results will help you decide how hot, cold, wet, or windy it might be!

Date:

Astronomy

Oct. 10, 2014 Rise Set
Actual Time 7:14 AM MDT 6:41 PM MDT
Civil Twilight 6:48 AM MDT 7:07 PM MDT
Nautical Twilight 6:18 AM MDT 7:37 PM MDT
Astronomical Twilight 5:47 AM MDT 8:07 PM MDT
Moon 8:27 PM MDT (10/10) 9:35 AM MDT (10/10)
Length of Visible Light 12h 18m
Length of Day
11h 26m
Waning Gibbous, 93% of the Moon is Illuminated
Oct 10
Waning Gibbous
Oct 15
Last Quarter
Oct 23
New
Oct 30
First Quarter
Nov 6
Full

Hourly Weather History & Observations

Time (MDT) Temp. Windchill Dew Point Humidity Pressure Visibility Wind Dir Wind Speed Gust Speed Precip Events Conditions
12:53 AM 50.0 °F - 48.0 °F 93% 29.96 in 10.0 mi East 5.8 mph - N/A   Overcast
1:17 AM 50.0 °F - 46.9 °F 89% 30.11 in 10.0 mi NE 4.6 mph - 0.00 in Rain Light Rain
1:49 AM 48.2 °F - 48.2 °F 100% 30.11 in 5.0 mi NE 4.6 mph - 0.02 in Rain Light Rain
1:53 AM 48.9 °F - 48.0 °F 97% 29.97 in 5.0 mi ENE 3.5 mph - 0.02 in Rain Light Rain
2:19 AM 48.9 °F - 48.0 °F 97% 30.11 in 5.0 mi NE 4.6 mph - 0.01 in Rain Light Rain
2:53 AM 48.9 °F - 48.0 °F 97% 29.97 in 9.0 mi East 4.6 mph - 0.02 in Rain Light Rain
3:07 AM 48.9 °F - 48.0 °F 97% 30.11 in 10.0 mi ENE 3.5 mph - 0.00 in Rain Light Rain
3:53 AM 48.9 °F - 48.0 °F 97% 30.00 in 10.0 mi North 3.5 mph - 0.01 in Rain Light Rain
4:53 AM 48.9 °F - 48.0 °F 97% 30.01 in 10.0 mi Calm Calm - 0.00 in   Overcast
5:02 AM 48.9 °F - 48.0 °F 97% 30.12 in 10.0 mi Calm Calm - N/A   Overcast
5:53 AM 48.9 °F - 48.0 °F 97% 30.02 in 10.0 mi Calm Calm - N/A   Overcast
6:18 AM 48.9 °F - 48.0 °F 97% 30.14 in 10.0 mi Calm Calm - N/A   Overcast
6:53 AM 48.9 °F - 46.9 °F 93% 30.04 in 10.0 mi Calm Calm - N/A   Overcast
7:15 AM 48.9 °F - 46.9 °F 93% 30.16 in 10.0 mi Calm Calm - N/A   Overcast
7:53 AM 48.9 °F - 46.9 °F 93% 30.05 in 10.0 mi Calm Calm - N/A   Overcast
8:11 AM 48.9 °F - 46.9 °F 93% 30.17 in 10.0 mi East 3.5 mph - N/A   Overcast
8:35 AM 48.9 °F - 48.0 °F 97% 30.18 in 10.0 mi SE 4.6 mph - N/A   Overcast
8:46 AM 48.9 °F - 48.0 °F 97% 30.18 in 10.0 mi SE 4.6 mph - N/A   Overcast
8:53 AM 48.9 °F - 48.0 °F 97% 30.07 in 10.0 mi ESE 3.5 mph - N/A   Overcast
9:53 AM 50.0 °F - 48.0 °F 93% 30.09 in 10.0 mi East 3.5 mph - N/A   Overcast
10:00 AM 50.0 °F - 48.0 °F 93% 30.20 in 10.0 mi East 4.6 mph - N/A   Overcast
10:24 AM 51.1 °F - 48.0 °F 89% 30.20 in 10.0 mi East 6.9 mph - N/A   Overcast
10:53 AM 52.0 °F - 48.0 °F 86% 30.09 in 10.0 mi East 8.1 mph - N/A   Overcast
11:34 AM 52.0 °F - 46.0 °F 80% 30.21 in 10.0 mi East 8.1 mph - N/A   Overcast
11:53 AM 53.1 °F - 46.9 °F 80% 30.08 in 10.0 mi Variable 5.8 mph - N/A   Overcast
12:04 PM 53.1 °F - 46.0 °F 77% 30.21 in 10.0 mi ENE 4.6 mph - N/A   Overcast
12:21 PM 53.1 °F - 45.0 °F 74% 30.20 in 10.0 mi ESE 3.5 mph - 0.00 in Rain Light Rain
12:53 PM 54.0 °F - 42.1 °F 64% 30.07 in 10.0 mi SE 6.9 mph - 0.00 in   Overcast
1:53 PM 55.9 °F - 44.1 °F 64% 30.05 in 10.0 mi East 3.5 mph - N/A   Overcast
2:53 PM 59.0 °F - 44.1 °F 58% 30.03 in 10.0 mi Calm Calm - N/A   Scattered Clouds
3:53 PM 57.9 °F - 44.1 °F 60% 30.02 in 10.0 mi SSW 4.6 mph - N/A   Overcast
4:53 PM 57.0 °F - 44.1 °F 62% 30.03 in 10.0 mi WSW 4.6 mph - N/A   Overcast
5:53 PM 57.0 °F - 43.0 °F 59% 30.04 in 10.0 mi Calm Calm - 0.00 in   Overcast
6:53 PM 54.0 °F - 46.0 °F 75% 30.06 in 10.0 mi NNE 4.6 mph - N/A   Scattered Clouds
7:53 PM 51.1 °F - 48.0 °F 89% 30.09 in 10.0 mi Calm Calm - N/A   Clear
8:53 PM 48.0 °F - 45.0 °F 89% 30.12 in 10.0 mi Calm Calm - N/A   Clear
9:53 PM 46.9 °F - 44.1 °F 90% 30.14 in 10.0 mi Calm Calm - N/A   Clear
10:53 PM 46.0 °F - 44.1 °F 93% 30.15 in 10.0 mi Calm Calm - N/A   Scattered Clouds
11:53 PM 45.0 °F 41.8 °F 43.0 °F 93% 30.15 in 10.0 mi North 5.8 mph - N/A   Partly Cloudy